Location: Bergfeld
(52.0500°N, 11.7833°E)
Time: 05:00:53
(UTC+00:00)

Cosmos 1484 Rocket - Pass Details

Date: 17 February 2020
Orbit: 507 x 559 km, 97.4° (Epoch: 29 March)

Event Time Altitude Azimuth Distance (km) Brightness Sun altitude
Rises 05:08:25 0° 6° (N) 2,706 6.4 -12.4°
Reaches altitude 10° 05:10:40 10° 356° (N) 1,818 5.4 -12.1°
Maximum altitude 05:14:10 32° 293° (WNW) 968 3.5 -11.5°
Drops below altitude 10° 05:17:42 10° 231° (SW) 1,829 5.1 -11.0°
Sets 05:19:59 0° 221° (SW) 2,725 6.0 -10.6°
